sat.trackr.live / text

‹ back to catalog

STARLINK-3768

NORAD 52301 · 2022-041AS

PAYLOAD ACTIVE UNKNOWN

§ Identity

Operator
Country
US
Launch date
2022-04-21
Launch site
AFETR
Launch vehicle
Mass (kg)
RCS (m²)

Purposes: comms

External: N2YO · Heavens-Above · Gunter

§ Orbital elements

Epoch: 2026-05-25T04:23:59.320608Z

Period
95.44 min
Inclination
53.2146°
Eccentricity
0.0001261
Mean motion
15.08839052 rev/d
Perigee alt
538.9 km
Apogee alt
540.6 km
Semi-major
6,917.9 km
B*
5.9203e-5
RAAN
115.7263°
Arg perigee
69.9855°
Mean anomaly
290.1273°
Rev number
22,605

§ Raw data

STARLINK-37681 52301U 22041AS  26145.18332547  .00000654  00000+0  59203-4 0  99982 52301  53.2146 115.7263 0001261  69.9855 290.1273 15.08839052226051

JSON: /api/v1/satellites/52301 · /tle

For live sub-satellite position, see the globe view (requires WebGL).

§ Visibility from observer

Set your observer location to see the next 7 days of passes ≥ 10°. The values pass through the URL so the page stays shareable.

No JS? Fill the form by hand. The geolocation button needs JavaScript.